Regional Weather Roundup
Issued by NWS Little Rock, AR

Home | Current Version | Previous Version | Graphics & Text | Print | Product List | Glossary Off
Versions: 1 2 3 4 5 6 7 8 9 10 11 12 13 14 15 16 17 18 19 20 21 22 23 24 25 26 27 28 29 30 31 32 33 34 35 36 37 38 39 40 41 42 43 44 45 46 47 48 49 50

000
ASUS44 KLZK 100305
RWRLZK

WEATHER ROUNDUP FOR ARKANSAS
NATIONAL WEATHER SERVICE LITTLE ROCK AR
900 PM CST TUE FEB 09 2016

NOTE: "FAIR" INDICATES FEW OR NO CLOUDS BELOW 12,000 FEET WITH NO
SIGNIFICANT WEATHER AND/OR OBSTRUCTIONS TO VISIBILITY.

ARZ001-003-010-029-100400-
NORTHWEST ARKANSAS

CITY           SKY/WX    TMP DP  RH WIND       PRES   REMARKS
FAYETTEVILLE   CLEAR     28   9  44 NW13      30.23R WCI  17
FORT SMITH     CLEAR     39   9  29 NW16      30.27R
HARRISON       CLEAR     27   6  41 NW13      30.18R WCI  16
BENTONVILLE    CLEAR     28   5  37 N15G22    30.24R WCI  17
ROGERS         CLEAR     27   9  46 NW14G23   30.23R WCI  16
SILOAM SPGS    CLEAR     28   7  40 N15       30.26R WCI  17
HIGHFILL       CLEAR     29   8  41 N15G22    30.24R WCI  18
SPRINGDALE     CLEAR     28   7  40 NW13G22   30.25R WCI  18
$$

ARZ004-005-016-100400-
NORTH CENTRAL ARKANSAS

CITY           SKY/WX    TMP DP  RH WIND       PRES   REMARKS
BATESVILLE     CLEAR     32   9  37 W7        30.18R WCI  26
FLIPPIN        CLEAR    N/A N/A N/A NW10G21   30.16S
MTN HOME       CLEAR     29   5  36 NW9G17    30.16R WCI  20
$$

ARZ040-041-100400-
WEST CENTRAL ARKANSAS

CITY           SKY/WX    TMP DP  RH WIND       PRES   REMARKS
MENA           CLEAR     41  14  33 NW14      30.22R
MOUNT IDA      CLEAR     39  12  33 VRB6      30.18R
$$

ARZ009-017-025-026-028-100400-
NORTHEAST ARKANSAS

CITY           SKY/WX    TMP DP  RH WIND       PRES   REMARKS
CORNING        FAIR      27  14  59 NW8       30.17R WCI  18
JONESBORO      CLEAR     26  13  57 W5        30.17R WCI  20
NEWPORT        CLEAR     28  12  51 NW7       30.20R WCI  21
BLYTHEVILLE    CLEAR     22  14  71 N6        30.16S WCI  14
$$

ARZ022-023-033-042-044-100400-
CENTRAL ARKANSAS

CITY           SKY/WX    TMP DP  RH WIND       PRES   REMARKS
LITTLE ROCK    CLEAR     39   9  29 NW9       30.20R
N LITTLE ROCK  CLEAR     35  10  34 NW6       30.20R WCI  30
JACKSONVILLE   CLEAR     29  13  50 W2        30.19R
SEARCY         CLEAR     34  10  37 N8        30.21R WCI  27
HOT SPRINGS    CLEAR     40  12  32 CALM      30.21R
RUSSELLVILLE   CLEAR     37   9  31 NW9       30.20S
CLINTON        FAIR      27  14  59 CALM      30.20R
$$

ARZ036-100400-
EAST ARKANSAS

CITY           SKY/WX    TMP DP  RH WIND       PRES   REMARKS
WEST MEMPHIS   HAZE      27  19  72 CALM      30.17R VSB 1/2
$$

ARZ050-053-066-070-073-100400-
SOUTHWEST ARKANSAS

CITY           SKY/WX    TMP DP  RH WIND       PRES   REMARKS
ARKADELPHIA    FAIR      40  16  38 NW6       30.23S
CAMDEN         MIX PCPN  41  10  28 NW5       30.22S
TEXARKANA      CLEAR     43  19  38 NW9       30.24R
EL DORADO      CLEAR     42  15  33 NW7       30.22R
DE QUEEN       CLEAR     40  18  41 NW5       30.24R
$$

ARZ056-057-069-100400-
SOUTHEAST ARKANSAS

CITY           SKY/WX    TMP DP  RH WIND       PRES   REMARKS
PINE BLUFF     CLEAR     38  10  31 NW9       30.20R
STUTTGART      CLEAR     32  16  51 NW8       30.20R WCI  25
MONTICELLO     CLEAR     41  11  29 NW3       30.19R

$$





USA.gov is the U.S. government's official web portal to all federal, state and local government web resources and services.